Change the Weather History Date:

Wednesday, February 13, 2013

  Actual Average Record
Temperature  
Mean Temperature 31 °F 25 °F  
Max Temperature 42 °F 33 °F 60 °F (1938)
Min Temperature 20 °F 17 °F -7 °F (1986)
Degree Days  
Heating Degree Days 34 40  
Month to date heating degree days 552 537  
Since 1 July heating degree days 4137 4446  
Cooling Degree Days 0 0  
Month to date cooling degree days 0 0  
Year to date cooling degree days 0 0  
Moisture  
Dew Point 27 °F    
Average Humidity 81    
Maximum Humidity 96    
Minimum Humidity 65    
Precipitation  
Precipitation 0.00 in 0.05 in 1.01 in (1950)
Month to date precipitation 1.70 0.57  
Year to date precipitation 4.79 1.94  
Snow  
Snow 0.00 in 0.30 in 6.50 in (1946)
Month to date snowfall 10.9 3.9  
Since 1 July snowfall 15.7 27.2  
Snow Depth 0.00 in    
Sea Level Pressure  
Sea Level Pressure 29.80 in    
Wind  
Wind Speed 5 mph (SSW)    
Max Wind Speed 15 mph    
Max Gust Speed 17 mph    
Visibility 9 miles    
Events      
T = Trace of Precipitation, MM = Missing Value Source: NWS Daily Summary

Daily Weather History Graph

Daily Weather History Graph

Search for Another Location

Airport or City:

Trip Planner

Search our weather history database for the weather conditions in past years. The results will help you decide how hot, cold, wet, or windy it might be!

Date:

Astronomy

Feb. 13, 2013 Rise Set
Actual Time 6:54 AM CST 5:26 PM CST
Civil Twilight 6:26 AM CST 5:55 PM CST
Nautical Twilight 5:53 AM CST 6:28 PM CST
Astronomical Twilight 5:20 AM CST 7:01 PM CST
Moon 8:19 AM CST (2/13) 9:35 PM CST (2/13)
Length of Visible Light 11h 29m
Length of Day
10h 31m
Waxing Crescent, 14% of the Moon is Illuminated
Feb 13
Waxing Crescent
Feb 17
First Quarter
Feb 25
Full
Mar 4
Last Quarter
Mar 11
New

Hourly Weather History & Observations

Time (CST) Temp. Windchill Dew Point Humidity Pressure Visibility Wind Dir Wind Speed Gust Speed Precip Events Conditions
12:54 AM 23.0 °F 15.8 °F 19.9 °F 88% 29.91 in 8.0 mi South 5.8 mph - N/A   Partly Cloudy
1:54 AM 24.1 °F 17.0 °F 21.0 °F 88% 29.89 in 7.0 mi SSW 5.8 mph - N/A   Partly Cloudy
2:54 AM 23.0 °F 14.7 °F 21.0 °F 92% 29.87 in 8.0 mi South 6.9 mph - N/A   Clear
3:54 AM 24.1 °F 17.0 °F 21.9 °F 91% 29.85 in 8.0 mi South 5.8 mph - N/A   Clear
4:54 AM 23.0 °F 17.0 °F 21.0 °F 92% 29.83 in 7.0 mi SSE 4.6 mph - N/A   Clear
5:54 AM 21.0 °F 14.6 °F 18.0 °F 88% 29.82 in 6.0 mi SSE 4.6 mph - N/A   Clear
6:54 AM 21.0 °F 14.6 °F 19.0 °F 92% 29.81 in 6.0 mi SE 4.6 mph - N/A   Clear
7:54 AM 23.0 °F - 21.0 °F 92% 29.82 in 5.0 mi Calm Calm - N/A   Partly Cloudy
8:54 AM 28.0 °F 24.2 °F 26.1 °F 92% 29.82 in 6.0 mi SSW 3.5 mph - N/A   Clear
9:54 AM 32.0 °F 26.4 °F 28.0 °F 85% 29.81 in 8.0 mi SSW 5.8 mph - N/A   Partly Cloudy
10:54 AM 35.1 °F 31.0 °F 28.9 °F 78% 29.80 in 10.0 mi SW 4.6 mph - N/A   Partly Cloudy
11:54 AM 37.9 °F - 28.9 °F 70% 29.79 in 10.0 mi Calm Calm - N/A   Scattered Clouds
12:54 PM 41.0 °F 38.0 °F 30.0 °F 65% 29.76 in 10.0 mi SSW 4.6 mph - N/A   Scattered Clouds
1:54 PM 41.0 °F 36.4 °F 30.9 °F 67% 29.75 in 10.0 mi West 6.9 mph - N/A   Mostly Cloudy
2:54 PM 41.0 °F 33.9 °F 30.0 °F 65% 29.76 in 10.0 mi West 12.7 mph - N/A   Mostly Cloudy
3:54 PM 39.9 °F 34.5 °F 30.9 °F 70% 29.76 in 10.0 mi West 8.1 mph - N/A   Scattered Clouds
4:54 PM 37.9 °F 32.7 °F 30.0 °F 73% 29.77 in 10.0 mi West 6.9 mph - N/A   Scattered Clouds
5:54 PM 36.0 °F 32.1 °F 30.0 °F 79% 29.78 in 10.0 mi WSW 4.6 mph - N/A   Mostly Cloudy
6:54 PM 35.1 °F 31.0 °F 30.0 °F 82% 29.79 in 10.0 mi SSW 4.6 mph - N/A   Overcast
7:54 PM 34.0 °F 29.8 °F 30.0 °F 85% 29.78 in 10.0 mi South 4.6 mph - N/A   Overcast
8:54 PM 34.0 °F 31.0 °F 30.9 °F 89% 29.77 in 9.0 mi South 3.5 mph - N/A   Overcast
9:54 PM 34.0 °F 29.8 °F 30.0 °F 85% 29.76 in 9.0 mi South 4.6 mph - N/A   Overcast
10:54 PM 35.1 °F 30.1 °F 32.0 °F 89% 29.75 in 10.0 mi South 5.8 mph - N/A   Overcast
11:54 PM 35.1 °F 30.1 °F 30.9 °F 85% 29.73 in 10.0 mi South 5.8 mph - N/A   Overcast